Regional Weather Roundup
Issued by NWS Charleston, WV

Home | Current Version | Previous Version | Text Only | Print | Product List | Glossary Off
Versions: 1 2 3 4 5 6 7 8 9 10 11 12 13 14 15 16 17 18 19 20 21 22 23 24 25 26 27 28 29 30 31 32 33 34 35 36 37 38 39 40 41 42 43 44 45 46 47 48 49 50

000
ASUS41 KRLX 011210
RWRRLX
West Virginia Regional Weather Roundup
National Weather Service Charleston WV
800 AM EDT SAT AUG 01 2015

Note: "fair" indicates few or no clouds below 12,000 feet with no
significant weather and/or obstructions to visibility.

WVZ003-011300-
Northern Panhandle of West Virginia

CITY           SKY/WX    TMP DP  RH WIND       PRES   REMARKS
WHEELING       SUNNY     67  58  72 W5        29.95R
$$

WVZ009-011300-
Northwest West Virginia

CITY           SKY/WX    TMP DP  RH WIND       PRES   REMARKS
PARKERSBURG    MOSUNNY   67  62  84 CALM      29.99R
$$

WVZ006-011300-
Western West Virginia

CITY           SKY/WX    TMP DP  RH WIND       PRES   REMARKS
HUNTINGTON     SUNNY     66  62  87 CALM      29.99R
$$

WVZ015-011300-
West Central West Virginia

CITY           SKY/WX    TMP DP  RH WIND       PRES   REMARKS
CHARLESTON     MOSUNNY   68  62  81 SW6       29.99R
$$

WVZ022-031-011300-
North Central West Virginia

CITY           SKY/WX    TMP DP  RH WIND       PRES   REMARKS
CLARKSBURG     MOSUNNY   70  62  76 W6        29.96R
MORGANTOWN     PTSUNNY   70  60  70 VRB3      29.96R
$$

WVZ025-035-042-045-011300-
Southern West Virginia

CITY           SKY/WX    TMP DP  RH WIND       PRES   REMARKS
BECKLEY        SUNNY     64  58  80 SW5       30.06R
LOGAN            N/A     64  63  94 CALM      30.00R
BLUEFIELD      SUNNY     66  56  70 W7        30.09R
LEWISBURG      SUNNY     62  59  88 CALM      30.04S
$$

WVZ047-011300-
Northern Mountains of West Virginia

CITY           SKY/WX    TMP DP  RH WIND       PRES   REMARKS
ELKINS         CLOUDY    68  59  73 SE5       30.00R
$$

WVZ052-011300-
Eastern Panhandle of West Virginia

CITY           SKY/WX    TMP DP  RH WIND       PRES   REMARKS
MARTINSBURG    SUNNY     68  61  78 SE3       29.90R
PETERSBURG     SUNNY    N/A N/A N/A CALM      29.94S
$$



USA.gov is the U.S. government's official web portal to all federal, state and local government web resources and services.